Time,TemperatureF,DewpointF,PressureIn,WindDirection,WindDirectionDegrees,WindSpeedMPH,WindSpeedGustMPH,Humidity,HourlyPrecipIn,Conditions,Clouds,dailyrainin,SoftwareType,DateUTC
2013-01-17 00:13:00,33.9,28.0,29.98,WNW,291,2.0,-999.0,78,-99.99,,,0.00,weatherlink.com 1.10,2013-01-17 05:13:00,
2013-01-17 00:28:00,34.1,28.0,29.99,WNW,293,3.0,-999.0,79,-99.99,,,0.00,weatherlink.com 1.10,2013-01-17 05:28:00,
2013-01-17 00:43:00,34.3,29.0,30.00,NNW,340,3.0,-999.0,80,-99.99,,,0.00,weatherlink.com 1.10,2013-01-17 05:43:00,
2013-01-17 00:58:00,34.4,29.0,30.00,West,281,1.0,-999.0,79,-99.99,,,0.00,weatherlink.com 1.10,2013-01-17 05:58:00,
2013-01-17 01:13:00,34.3,29.0,30.00,NW,305,2.0,-999.0,80,-99.99,,,0.00,weatherlink.com 1.10,2013-01-17 06:13:00,
2013-01-17 01:28:00,34.3,29.0,30.01,West,281,2.0,-999.0,80,-99.99,,,0.00,weatherlink.com 1.10,2013-01-17 06:28:00,
2013-01-17 01:43:00,34.3,29.0,30.02,WSW,256,0.0,-999.0,80,-99.99,,,0.00,weatherlink.com 1.10,2013-01-17 06:43:00,
2013-01-17 01:58:00,34.3,29.0,30.02,West,274,1.0,-999.0,80,-99.99,,,0.00,weatherlink.com 1.10,2013-01-17 06:58:00,
2013-01-17 02:13:00,34.3,29.0,30.04,NW,319,0.0,-999.0,80,-99.99,,,0.00,weatherlink.com 1.10,2013-01-17 07:13:00,
2013-01-17 02:28:00,34.3,29.0,30.04,WSW,239,1.0,-999.0,80,-99.99,,,0.00,weatherlink.com 1.10,2013-01-17 07:28:00,
2013-01-17 02:43:00,34.5,29.0,30.04,West,278,1.0,-999.0,79,-99.99,,,0.00,weatherlink.com 1.10,2013-01-17 07:43:00,
2013-01-17 02:58:00,34.5,29.0,30.05,WSW,254,0.0,-999.0,79,-99.99,,,0.00,weatherlink.com 1.10,2013-01-17 07:58:00,
2013-01-17 03:13:00,34.5,29.0,30.06,West,269,0.0,-999.0,80,-99.99,,,0.00,weatherlink.com 1.10,2013-01-17 08:13:00,
2013-01-17 03:28:00,34.5,29.0,30.05,WNW,294,1.0,-999.0,80,-99.99,,,0.00,weatherlink.com 1.10,2013-01-17 08:28:00,
2013-01-17 03:43:00,34.3,29.0,30.06,WSW,257,0.0,-999.0,80,-99.99,,,0.00,weatherlink.com 1.10,2013-01-17 08:43:00,
2013-01-17 03:58:00,34.2,29.0,30.06,WSW,257,0.0,-999.0,81,-99.99,,,0.00,weatherlink.com 1.10,2013-01-17 08:58:00,
2013-01-17 04:13:00,34.1,29.0,30.06,West,260,0.0,-999.0,81,-99.99,,,0.00,weatherlink.com 1.10,2013-01-17 09:13:00,
2013-01-17 04:28:00,34.0,29.0,30.07,West,278,1.0,-999.0,82,-99.99,,,0.00,weatherlink.com 1.10,2013-01-17 09:28:00,
2013-01-17 04:43:00,33.9,29.0,30.07,NW,309,0.0,-999.0,82,-99.99,,,0.00,weatherlink.com 1.10,2013-01-17 09:43:00,
2013-01-17 04:58:00,33.9,29.0,30.08,NW,325,0.0,-999.0,83,-99.99,,,0.00,weatherlink.com 1.10,2013-01-17 09:58:00,
2013-01-17 05:13:00,33.7,29.0,30.08,NW,321,1.0,-999.0,83,-99.99,,,0.00,weatherlink.com 1.10,2013-01-17 10:13:00,
2013-01-17 05:28:00,33.1,29.0,30.08,West,263,0.0,-999.0,84,-99.99,,,0.00,weatherlink.com 1.10,2013-01-17 10:28:00,
2013-01-17 05:43:00,32.5,28.0,30.09,West,265,0.0,-999.0,84,-99.99,,,0.00,weatherlink.com 1.10,2013-01-17 10:43:00,
2013-01-17 05:58:00,31.8,28.0,30.09,WNW,291,0.0,-999.0,85,-99.99,,,0.00,weatherlink.com 1.10,2013-01-17 10:58:00,
2013-01-17 06:13:00,31.1,27.0,30.10,NW,315,0.0,-999.0,86,-99.99,,,0.00,weatherlink.com 1.10,2013-01-17 11:13:00,
2013-01-17 06:28:00,30.2,27.0,30.11,NW,314,0.0,-999.0,87,-99.99,,,0.00,weatherlink.com 1.10,2013-01-17 11:28:00,
2013-01-17 06:43:00,30.0,27.0,30.11,NW,315,0.0,-999.0,88,-99.99,,,0.00,weatherlink.com 1.10,2013-01-17 11:43:00,
2013-01-17 06:58:00,30.3,28.0,30.11,NW,315,0.0,-999.0,89,-99.99,,,0.00,weatherlink.com 1.10,2013-01-17 11:58:00,
2013-01-17 07:13:00,30.4,27.0,30.12,NW,325,0.0,-999.0,88,-99.99,,,0.00,weatherlink.com 1.10,2013-01-17 12:13:00,
2013-01-17 07:28:00,30.0,27.0,30.12,NW,325,0.0,-999.0,88,-99.99,,,0.00,weatherlink.com 1.10,2013-01-17 12:28:00,
2013-01-17 07:43:00,29.6,27.0,30.13,NW,325,0.0,-999.0,89,-99.99,,,0.00,weatherlink.com 1.10,2013-01-17 12:43:00,
2013-01-17 07:58:00,29.1,26.0,30.13,WSW,252,0.0,-999.0,88,-99.99,,,0.00,weatherlink.com 1.10,2013-01-17 12:58:00,
2013-01-17 08:13:00,28.4,26.0,30.14,WSW,252,0.0,-999.0,89,-99.99,,,0.00,weatherlink.com 1.10,2013-01-17 13:13:00,
2013-01-17 08:28:00,27.7,25.0,30.14,WSW,252,0.0,-999.0,89,-99.99,,,0.00,weatherlink.com 1.10,2013-01-17 13:28:00,
2013-01-17 08:43:00,27.2,25.0,30.15,WSW,252,0.0,-999.0,90,-99.99,,,0.00,weatherlink.com 1.10,2013-01-17 13:43:00,
2013-01-17 08:58:00,27.0,25.0,30.15,WSW,252,0.0,-999.0,91,-99.99,,,0.00,weatherlink.com 1.10,2013-01-17 13:58:00,
2013-01-17 09:13:00,27.3,25.0,30.16,WSW,252,0.0,-999.0,91,-99.99,,,0.00,weatherlink.com 1.10,2013-01-17 14:13:00,
2013-01-17 09:28:00,27.9,26.0,30.16,WSW,252,0.0,-999.0,92,-99.99,,,0.00,weatherlink.com 1.10,2013-01-17 14:28:00,
2013-01-17 09:43:00,29.9,28.0,30.17,NNW,336,1.0,-999.0,91,-99.99,,,0.00,weatherlink.com 1.10,2013-01-17 14:43:00,
2013-01-17 09:58:00,32.0,28.0,30.18,WNW,301,1.0,-999.0,84,-99.99,,,0.00,weatherlink.com 1.10,2013-01-17 14:58:00,
2013-01-17 10:13:00,33.1,27.0,30.18,NNE,20,2.0,-999.0,78,-99.99,,,0.00,weatherlink.com 1.10,2013-01-17 15:13:00,
2013-01-17 10:28:00,33.8,27.0,30.19,North,350,3.0,-999.0,75,-99.99,,,0.00,weatherlink.com 1.10,2013-01-17 15:28:00,
2013-01-17 10:43:00,34.2,26.0,30.20,North,351,2.0,-999.0,72,-99.99,,,0.00,weatherlink.com 1.10,2013-01-17 15:43:00,
2013-01-17 10:58:00,34.4,26.0,30.20,NE,38,3.0,-999.0,71,-99.99,,,0.00,weatherlink.com 1.10,2013-01-17 15:58:00,
2013-01-17 11:13:00,34.5,25.0,30.19,NNW,345,2.0,-999.0,69,-99.99,,,0.00,weatherlink.com 1.10,2013-01-17 16:13:00,
2013-01-17 11:28:00,35.0,25.0,30.19,North,351,4.0,-999.0,66,-99.99,,,0.00,weatherlink.com 1.10,2013-01-17 16:28:00,
2013-01-17 11:43:00,35.2,24.0,30.18,NNE,23,2.0,-999.0,65,-99.99,,,0.00,weatherlink.com 1.10,2013-01-17 16:43:00,
2013-01-17 11:58:00,35.6,24.0,30.18,NW,305,3.0,-999.0,64,-99.99,,,0.00,weatherlink.com 1.10,2013-01-17 16:58:00,
2013-01-17 12:13:00,36.2,24.0,30.18,North,350,3.0,-999.0,62,-99.99,,,0.00,weatherlink.com 1.10,2013-01-17 17:13:00,
2013-01-17 12:28:00,36.6,24.0,30.16,NNE,15,2.0,-999.0,61,-99.99,,,0.00,weatherlink.com 1.10,2013-01-17 17:28:00,
2013-01-17 12:43:00,37.0,24.0,30.16,NNE,23,5.0,-999.0,60,-99.99,,,0.00,weatherlink.com 1.10,2013-01-17 17:43:00,
2013-01-17 12:58:00,37.3,24.0,30.14,West,262,2.0,-999.0,60,-99.99,,,0.00,weatherlink.com 1.10,2013-01-17 17:58:00,
2013-01-17 13:13:00,38.0,24.0,30.14,NNW,345,2.0,-999.0,57,-99.99,,,0.00,weatherlink.com 1.10,2013-01-17 18:13:00,
2013-01-17 13:28:00,38.2,24.0,30.14,WNW,291,2.0,-999.0,57,-99.99,,,0.00,weatherlink.com 1.10,2013-01-17 18:28:00,
2013-01-17 13:43:00,38.7,24.0,30.13,WNW,282,1.0,-999.0,57,-99.99,,,0.00,weatherlink.com 1.10,2013-01-17 18:43:00,
2013-01-17 13:58:00,39.0,24.0,30.13,NNW,346,6.0,-999.0,55,-99.99,,,0.00,weatherlink.com 1.10,2013-01-17 18:58:00,
2013-01-17 14:13:00,39.0,24.0,30.13,NW,315,3.0,-999.0,56,-99.99,,,0.00,weatherlink.com 1.10,2013-01-17 19:13:00,
2013-01-17 14:28:00,39.2,25.0,30.12,NW,316,2.0,-999.0,56,-99.99,,,0.00,weatherlink.com 1.10,2013-01-17 19:28:00,
2013-01-17 14:43:00,39.5,24.0,30.12,West,277,3.0,-999.0,54,-99.99,,,0.00,weatherlink.com 1.10,2013-01-17 19:43:00,
2013-01-17 14:58:00,39.2,24.0,30.11,WNW,286,1.0,-999.0,54,-99.99,,,0.00,weatherlink.com 1.10,2013-01-17 19:58:00,
2013-01-17 15:13:00,39.1,22.0,30.11,NW,316,3.0,-999.0,51,-99.99,,,0.00,weatherlink.com 1.10,2013-01-17 20:13:00,
2013-01-17 15:28:00,38.5,21.0,30.12,NW,308,2.0,-999.0,50,-99.99,,,0.00,weatherlink.com 1.10,2013-01-17 20:28:00,
2013-01-17 15:43:00,37.7,21.0,30.12,NNW,338,5.0,-999.0,51,-99.99,,,0.00,weatherlink.com 1.10,2013-01-17 20:43:00,
2013-01-17 15:58:00,37.2,20.0,30.13,NW,316,4.0,-999.0,51,-99.99,,,0.00,weatherlink.com 1.10,2013-01-17 20:58:00,
2013-01-17 16:13:00,36.3,20.0,30.14,NNE,17,6.0,-999.0,52,-99.99,,,0.00,weatherlink.com 1.10,2013-01-17 21:13:00,
2013-01-17 16:28:00,35.5,19.0,30.15,NNW,338,1.0,-999.0,52,-99.99,,,0.00,weatherlink.com 1.10,2013-01-17 21:28:00,
2013-01-17 16:43:00,34.7,19.0,30.16,North,8,6.0,-999.0,52,-99.99,,,0.00,weatherlink.com 1.10,2013-01-17 21:43:00,
2013-01-17 16:58:00,33.8,17.0,30.17,NNW,335,6.0,-999.0,50,-99.99,,,0.00,weatherlink.com 1.10,2013-01-17 21:58:00,
2013-01-17 17:13:00,32.0,16.0,30.18,NNW,340,2.0,-999.0,51,-99.99,,,0.00,weatherlink.com 1.10,2013-01-17 22:13:00,
2013-01-17 17:28:00,30.3,15.0,30.18,NNW,333,6.0,-999.0,54,-99.99,,,0.00,weatherlink.com 1.10,2013-01-17 22:28:00,
2013-01-17 17:43:00,29.3,16.0,30.20,NW,324,2.0,-999.0,59,-99.99,,,0.00,weatherlink.com 1.10,2013-01-17 22:43:00,
2013-01-17 17:59:00,28.6,16.0,30.21,NW,304,3.0,-999.0,60,-99.99,,,0.00,weatherlink.com 1.10,2013-01-17 22:59:00,
2013-01-17 18:13:00,27.7,16.0,30.22,North,360,7.0,-999.0,61,-99.99,,,0.00,weatherlink.com 1.10,2013-01-17 23:13:00,
2013-01-17 18:28:00,26.7,16.0,30.24,NNW,328,3.0,-999.0,63,-99.99,,,0.00,weatherlink.com 1.10,2013-01-17 23:28:00,
2013-01-17 18:43:00,25.8,15.0,30.24,NW,307,5.0,-999.0,63,-99.99,,,0.00,weatherlink.com 1.10,2013-01-17 23:43:00,
2013-01-17 18:58:00,25.0,15.0,30.25,NE,41,4.0,-999.0,65,-99.99,,,0.00,weatherlink.com 1.10,2013-01-17 23:58:00,
2013-01-17 19:13:00,24.2,14.0,30.27,NNW,329,6.0,-999.0,64,-99.99,,,0.00,weatherlink.com 1.10,2013-01-18 00:13:00,
2013-01-17 19:28:00,23.6,13.0,30.28,North,8,4.0,-999.0,65,-99.99,,,0.00,weatherlink.com 1.10,2013-01-18 00:28:00,
2013-01-17 19:43:00,23.1,13.0,30.28,WNW,296,2.0,-999.0,64,-99.99,,,0.00,weatherlink.com 1.10,2013-01-18 00:43:00,
2013-01-17 19:58:00,22.6,12.0,30.29,WNW,295,1.0,-999.0,64,-99.99,,,0.00,weatherlink.com 1.10,2013-01-18 00:58:00,
2013-01-17 20:13:00,22.1,12.0,30.31,WSW,242,2.0,-999.0,64,-99.99,,,0.00,weatherlink.com 1.10,2013-01-18 01:13:00,
2013-01-17 20:28:00,21.8,10.0,30.31,NW,304,13.0,-999.0,61,-99.99,,,0.00,weatherlink.com 1.10,2013-01-18 01:28:00,
2013-01-17 20:43:00,21.6,10.0,30.31,NNW,334,3.0,-999.0,60,-99.99,,,0.00,weatherlink.com 1.10,2013-01-18 01:43:00,
2013-01-17 20:58:00,21.3,9.0,30.31,NW,315,1.0,-999.0,60,-99.99,,,0.00,weatherlink.com 1.10,2013-01-18 01:58:00,
2013-01-17 21:13:00,21.1,9.0,30.31,NW,311,3.0,-999.0,59,-99.99,,,0.00,weatherlink.com 1.10,2013-01-18 02:13:00,
2013-01-17 21:28:00,21.1,9.0,30.31,NNW,335,3.0,-999.0,59,-99.99,,,0.00,weatherlink.com 1.10,2013-01-18 02:28:00,
2013-01-17 21:43:00,20.9,9.0,30.32,NNW,335,3.0,-999.0,59,-99.99,,,0.00,weatherlink.com 1.10,2013-01-18 02:43:00,
2013-01-17 21:58:00,20.6,9.0,30.32,NNW,339,1.0,-999.0,61,-99.99,,,0.00,weatherlink.com 1.10,2013-01-18 02:58:00,
2013-01-17 22:13:00,20.3,9.0,30.32,NW,326,0.0,-999.0,63,-99.99,,,0.00,weatherlink.com 1.10,2013-01-18 03:13:00,
2013-01-17 22:28:00,19.7,10.0,30.32,NW,316,0.0,-999.0,65,-99.99,,,0.00,weatherlink.com 1.10,2013-01-18 03:28:00,
2013-01-17 22:43:00,19.3,10.0,30.31,North,354,0.0,-999.0,67,-99.99,,,0.00,weatherlink.com 1.10,2013-01-18 03:43:00,
2013-01-17 22:58:00,19.2,10.0,30.31,North,354,0.0,-999.0,68,-99.99,,,0.00,weatherlink.com 1.10,2013-01-18 03:58:00,
2013-01-17 23:13:00,19.5,11.0,30.31,North,354,0.0,-999.0,68,-99.99,,,0.00,weatherlink.com 1.10,2013-01-18 04:13:00,
2013-01-17 23:28:00,20.0,11.0,30.31,West,274,0.0,-999.0,68,-99.99,,,0.00,weatherlink.com 1.10,2013-01-18 04:28:00,
2013-01-17 23:58:00,20.2,12.0,30.32,WSW,256,0.0,-999.0,69,-99.99,,,0.00,weatherlink.com 1.10,2013-01-18 04:58:00,